Location: Dessau
(51.7984°N, 12.2168°E)
Time: 05:24:02

N. Korean satellite - Visible Passes

Search period start: 17 March 2018 00:00
Search period end: 27 March 2018 01:00
Orbit: 460 x 512 km, 97.2° (Epoch: 16 March)

Date Brightness Start Highest point End Pass type
(mag) Time Alt. Az. Time Alt. Az. Time Alt. Az.
18 Mar 10.3 05:45:54 10° NE 05:47:54 14° E 05:49:53 10° ESE visible
19 Mar 10.1 19:10:53 10° WSW 19:12:52 14° W 19:14:51 10° NW visible
23 Mar 10.1 19:08:56 10° WSW 19:11:02 14° W 19:13:11 10° NW visible
